User: anonymous   Login
Location: Newark
(47.5833°N, 8.1500°E)
Time: 00:57:59
(UTC+00:00)
Language:

Transit 4A - Orbit

View from above orbital plane
View from above orbital plane
View from above satellite
View from above satellite

Ground track
Ground track

The orbit data is extracted from the following two-line orbital elements,

1   116U 61015A   20300.54695254 -.00000033 +00000-0 +33926-4 0  9990
2   116 066.8096 247.7375 0082443 276.2822 082.8871 13.91777169010073
Epoch (UTC): 26 October 2020 13:07:36
Eccentricity: 0.0082443
inclination: 66.8096°
perigee height: 862 km
apogee height: 982 km
right ascension of ascending node: 247.7375°
argument of perigee: 276.2822°
revolutions per day: 13.91777169
mean anomaly at epoch: 82.8871°
orbit number at epoch: 1007

The dashed part of the orbit path shows where the satellite is in the earth's shadow,  

DLR